| time (UTC) | temp F | wind direction | speed knots | gust knots | rain 1hr in | rain 24hr in | rain mn in | humidity % | barometer mb |
| 20260506051014 | 46 | 338 | 8.7 | 15.6 | 0.00 | 0.00 | 0.00 | 75 | 1017.7 |
| 20260506050514 | 46 | 320 | 7.8 | 15.6 | 0.00 | 0.00 | 0.00 | 74 | 1017.7 |
| 20260506045014 | 47 | 352 | 8.7 | 14.8 | 0.00 | 0.00 | 0.00 | 73 | 1017.6 |
| 20260506044537 | 47 | 333 | 8.7 | 14.8 | 0.00 | 0.00 | 0.00 | 72 | 1017.5 |
| 20260506044012 | 47 | 340 | 8.7 | 13.0 | 0.00 | 0.00 | 0.00 | 72 | 1017.5 |
| 20260506043512 | 48 | 26 | 7.8 | 13.9 | 0.00 | 0.00 | 0.00 | 70 | 1017.6 |
| 20260506043031 | 48 | 347 | 8.7 | 13.9 | 0.00 | 0.00 | 0.00 | 70 | 1017.3 |
| 20260506042517 | 48 | 336 | 6.1 | 12.2 | 0.00 | 0.00 | 0.00 | 71 | 1017.3 |
| 20260506042015 | 48 | 319 | 7.0 | 11.3 | 0.00 | 0.00 | 0.00 | 71 | 1017.3 |
| 20260506041533 | 48 | 346 | 6.1 | 12.2 | 0.00 | 0.00 | 0.00 | 70 | 1017.0 |
| 20260506041012 | 49 | 315 | 5.2 | 13.0 | 0.00 | 0.00 | 0.00 | 69 | 1016.7 |
| 20260506040515 | 49 | 322 | 6.1 | 13.0 | 0.00 | 0.00 | 0.00 | 68 | 1016.8 |
| 20260506040036 | 50 | 317 | 6.1 | 11.3 | 0.00 | 0.00 | 0.00 | 68 | 1016.6 |
| 20260506035517 | 50 | 334 | 5.2 | 10.4 | 0.00 | 0.00 | 0.00 | 67 | 1016.7 |
| 20260506035016 | 51 | 313 | 3.5 | 8.7 | 0.00 | 0.00 | 0.00 | 67 | 1016.5 |
| 20260506034532 | 51 | 327 | 3.5 | 8.7 | 0.00 | 0.00 | 0.00 | 68 | 1016.5 |
| 20260506034011 | 52 | 300 | 2.6 | 11.3 | 0.00 | 0.00 | 0.00 | 67 | 1016.3 |
| 20260506033513 | 53 | 284 | 6.1 | 11.3 | 0.00 | 0.00 | 0.00 | 65 | 1016.3 |
| 20260506033038 | 54 | 277 | 5.2 | 10.4 | 0.00 | 0.00 | 0.00 | 63 | 1016.3 |
| 20260506032515 | 54 | 311 | 2.6 | 7.0 | 0.00 | 0.00 | 0.00 | 63 | 1016.3 |
| 20260506032017 | 55 | 300 | 1.7 | 7.0 | 0.00 | 0.00 | 0.00 | 65 | 1016.3 |
| 20260506031536 | 55 | 270 | 3.5 | 6.1 | 0.00 | 0.00 | 0.00 | 63 | 1016.2 |
| 20260506031016 | 56 | 281 | 2.6 | 7.8 | 0.00 | 0.00 | 0.00 | 62 | 1016.3 |
| 20260506030514 | 56 | 294 | 4.3 | 10.4 | 0.00 | 0.00 | 0.00 | 60 | 1016.0 |
| 20260506030054 | 56 | 286 | 5.2 | 10.4 | 0.00 | 0.00 | 0.00 | 60 | 1016.0 |
| 20260506025514 | 56 | 273 | 6.1 | 10.4 | 0.00 | 0.00 | 0.00 | 59 | 1015.8 |
| 20260506025017 | 57 | 288 | 6.1 | 12.2 | 0.00 | 0.00 | 0.00 | 59 | 1016.2 |
| 20260506024542 | 57 | 281 | 6.1 | 13.0 | 0.00 | 0.00 | 0.00 | 58 | 1016.1 |
| 20260506024015 | 57 | 292 | 7.8 | 13.9 | 0.00 | 0.00 | 0.00 | 57 | 1016.0 |
| 20260506023515 | 58 | 274 | 8.7 | 13.9 | 0.00 | 0.00 | 0.00 | 55 | 1015.9 |
| 20260506023035 | 59 | 288 | 5.2 | 10.4 | 0.00 | 0.00 | 0.00 | 57 | 1016.0 |
| 20260506022514 | 59 | 281 | 6.1 | 11.3 | 0.00 | 0.00 | 0.00 | 56 | 1016.0 |
| 20260506022014 | 58 | 274 | 7.0 | 13.9 | 0.00 | 0.00 | 0.00 | 56 | 1016.0 |
| 20260506021537 | 59 | 279 | 8.7 | 13.9 | 0.00 | 0.00 | 0.00 | 55 | 1015.9 |
| 20260506021011 | 59 | 298 | 6.1 | 13.0 | 0.00 | 0.00 | 0.00 | 56 | 1015.8 |
| 20260506020517 | 60 | 273 | 7.8 | 14.8 | 0.00 | 0.00 | 0.00 | 54 | 1015.8 |
| 20260506020035 | 60 | 290 | 7.8 | 14.8 | 0.00 | 0.00 | 0.00 | 52 | 1015.8 |
| 20260506015517 | 60 | 289 | 7.8 | 13.0 | 0.00 | 0.00 | 0.00 | 51 | 1015.6 |
| 20260506015015 | 60 | 294 | 7.0 | 13.9 | 0.00 | 0.00 | 0.00 | 52 | 1015.5 |
| 20260506014543 | 61 | 289 | 7.0 | 13.0 | 0.00 | 0.00 | 0.00 | 52 | 1015.5 |
| 20260506014012 | 61 | 300 | 7.0 | 12.2 | 0.00 | 0.00 | 0.00 | 52 | 1015.5 |
| 20260506013515 | 61 | 290 | 7.0 | 12.2 | 0.00 | 0.00 | 0.00 | 52 | 1015.5 |
| 20260506013032 | 62 | 300 | 6.1 | 13.0 | 0.00 | 0.00 | 0.00 | 51 | 1015.4 |
| 20260506012513 | 62 | 282 | 7.0 | 13.0 | 0.00 | 0.00 | 0.00 | 50 | 1015.4 |
| 20260506012013 | 62 | 271 | 6.1 | 12.2 | 0.00 | 0.00 | 0.00 | 53 | 1015.4 |
| 20260506011538 | 60 | 259 | 6.1 | 13.9 | 0.00 | 0.00 | 0.00 | 53 | 1015.4 |
| 20260506011015 | 61 | 296 | 8.7 | 12.2 | 0.00 | 0.00 | 0.00 | 53 | 1015.4 |
| 20260506010515 | 60 | 281 | 7.0 | 14.8 | 0.00 | 0.00 | 0.00 | 55 | 1015.5 |
| 20260506010045 | 61 | 274 | 8.7 | 15.6 | 0.00 | 0.00 | 0.00 | 53 | 1015.4 |
| 20260506005515 | 60 | 316 | 8.7 | 15.6 | 0.00 | 0.00 | 0.00 | 54 | 1015.4 |
| 20260506005011 | 60 | 280 | 9.6 | 16.5 | 0.00 | 0.00 | 0.00 | 55 | 1015.3 |
| 20260506004546 | 60 | 314 | 11.3 | 16.5 | 0.00 | 0.00 | 0.00 | 53 | 1015.3 |
| 20260506004015 | 61 | 294 | 10.4 | 15.6 | 0.00 | 0.00 | 0.00 | 52 | 1015.5 |
| 20260506003515 | 62 | 276 | 7.8 | 14.8 | 0.00 | 0.00 | 0.00 | 54 | 1015.5 |
| 20260506003040 | 62 | 292 | 10.4 | 14.8 | 0.00 | 0.00 | 0.00 | 52 | 1015.4 |
| 20260506002513 | 63 | 293 | 10.4 | 14.8 | 0.00 | 0.00 | 0.00 | 52 | 1015.4 |
| 20260506002019 | 63 | 278 | 8.7 | 17.4 | 0.00 | 0.00 | 0.00 | 52 | 1015.6 |
| 20260506001543 | 63 | 290 | 9.6 | 17.4 | 0.00 | 0.00 | 0.00 | 51 | 1015.5 |
| 20260506001014 | 64 | 288 | 11.3 | 15.6 | 0.00 | 0.00 | 0.00 | 49 | 1015.5 |
| 20260506000516 | 65 | 271 | 10.4 | 14.8 | 0.00 | 0.00 | 0.00 | 49 | 1015.3 |
| 20260506000038 | 66 | 291 | 9.6 | 14.8 | 0.00 | 0.00 | 0.00 | 49 | 1015.3 |
| 20260505235514 | 67 | 306 | 9.6 | 13.9 | 0.00 | 0.00 | 0.00 | 49 | 1015.3 |
| 20260505235013 | 67 | 293 | 4.3 | 10.4 | 0.00 | 0.00 | 0.00 | 51 | 1015.4 |
| 20260505234535 | 66 | 317 | 2.6 | 8.7 | 0.00 | 0.00 | 0.00 | 51 | 1015.4 |
| 20260505234016 | 64 | 282 | 0.9 | 7.0 | 0.00 | 0.00 | 0.00 | 55 | 1015.4 |
| 20260505233518 | 62 | 273 | 2.6 | 7.0 | 0.00 | 0.00 | 0.00 | 57 | 1015.2 |
| 20260505233032 | 61 | 236 | 2.6 | 7.8 | 0.00 | 0.00 | 0.00 | 61 | 1015.3 |
| 20260505232516 | 60 | 253 | 3.5 | 11.3 | 0.00 | 0.00 | 0.00 | 62 | 1015.4 |
| 20260505232013 | 60 | 271 | 7.0 | 11.3 | 0.00 | 0.00 | 0.00 | 59 | 1015.3 |
| 20260505231532 | 61 | 277 | 7.8 | 11.3 | 0.00 | 0.00 | 0.00 | 57 | 1015.3 |
| 20260505231014 | 61 | 269 | 7.0 | 10.4 | 0.00 | 0.00 | 0.00 | 57 | 1015.4 |
| 20260505230514 | 60 | 273 | 5.2 | 9.6 | 0.00 | 0.00 | 0.00 | 55 | 1015.4 |
| 20260505230046 | 61 | 267 | 5.2 | 8.7 | 0.00 | 0.00 | 0.00 | 57 | 1015.2 |
| 20260505225515 | 61 | 288 | 5.2 | 10.4 | 0.00 | 0.00 | 0.00 | 57 | 1015.3 |
| 20260505225020 | 61 | 270 | 6.1 | 13.0 | 0.00 | 0.00 | 0.00 | 54 | 1015.2 |
| 20260505224537 | 61 | 274 | 9.6 | 13.0 | 0.00 | 0.00 | 0.00 | 54 | 1015.2 |
| 20260505224015 | 62 | 288 | 8.7 | 13.9 | 0.00 | 0.00 | 0.00 | 55 | 1015.4 |
| 20260505223514 | 62 | 283 | 9.6 | 15.6 | 0.00 | 0.00 | 0.00 | 54 | 1015.4 |
| 20260505223035 | 62 | 303 | 10.4 | 16.5 | 0.00 | 0.00 | 0.00 | 55 | 1015.4 |
| 20260505222519 | 62 | 279 | 9.6 | 18.2 | 0.00 | 0.00 | 0.00 | 56 | 1015.3 |
| 20260505222015 | 62 | 263 | 10.4 | 15.6 | 0.00 | 0.00 | 0.00 | 56 | 1015.2 |
| 20260505221533 | 62 | 290 | 8.7 | 15.6 | 0.00 | 0.00 | 0.00 | 57 | 1015.0 |
| 20260505221016 | 62 | 287 | 11.3 | 14.8 | 0.00 | 0.00 | 0.00 | 55 | 1015.2 |
| 20260505220514 | 62 | 299 | 10.4 | 14.8 | 0.00 | 0.00 | 0.00 | 55 | 1015.1 |
| 20260505220041 | 61 | 302 | 7.8 | 14.8 | 0.00 | 0.00 | 0.00 | 58 | 1014.9 |
| 20260505215516 | 62 | 273 | 9.6 | 13.9 | 0.00 | 0.00 | 0.00 | 56 | 1014.9 |
| 20260505215017 | 62 | 269 | 8.7 | 13.9 | 0.00 | 0.00 | 0.00 | 56 | 1015.0 |
| 20260505214536 | 62 | 292 | 7.8 | 14.8 | 0.00 | 0.00 | 0.00 | 58 | 1015.1 |
| 20260505214016 | 61 | 282 | 8.7 | 14.8 | 0.00 | 0.00 | 0.00 | 57 | 1015.1 |
| 20260505213520 | 61 | 286 | 10.4 | 14.8 | 0.00 | 0.00 | 0.00 | 56 | 1015.0 |
| 20260505213043 | 61 | 275 | 10.4 | 14.8 | 0.00 | 0.00 | 0.00 | 56 | 1015.1 |
| 20260505212516 | 62 | 267 | 9.6 | 13.9 | 0.00 | 0.00 | 0.00 | 55 | 1015.0 |
| 20260505212016 | 61 | 291 | 7.8 | 13.9 | 0.00 | 0.00 | 0.00 | 57 | 1015.0 |
| 20260505211541 | 62 | 276 | 8.7 | 12.2 | 0.00 | 0.00 | 0.00 | 55 | 1015.0 |
| 20260505211017 | 63 | 273 | 7.8 | 12.2 | 0.00 | 0.00 | 0.00 | 55 | 1015.1 |
| 20260505210518 | 63 | 283 | 7.0 | 11.3 | 0.00 | 0.00 | 0.00 | 55 | 1015.1 |
| 20260505210033 | 64 | 274 | 7.8 | 13.0 | 0.00 | 0.00 | 0.00 | 54 | 1014.9 |
| 20260505205522 | 64 | 274 | 8.7 | 13.0 | 0.00 | 0.00 | 0.00 | 54 | 1014.9 |
| 20260505205017 | 63 | 273 | 7.8 | 13.0 | 0.00 | 0.00 | 0.00 | 55 | 1014.7 |
| 20260505204535 | 62 | 296 | 7.8 | 13.0 | 0.00 | 0.00 | 0.00 | 57 | 1014.7 |
| 20260505204017 | 63 | 276 | 6.1 | 13.0 | 0.00 | 0.00 | 0.00 | 57 | 1014.7 |
| 20260505203517 | 63 | 286 | 7.8 | 12.2 | 0.00 | 0.00 | 0.00 | 54 | 1014.7 |
| 20260505203044 | 63 | 269 | 6.1 | 12.2 | 0.00 | 0.00 | 0.00 | 57 | 1014.8 |
| 20260505202516 | 63 | 263 | 5.2 | 11.3 | 0.00 | 0.00 | 0.00 | 56 | 1014.7 |
| 20260505202017 | 63 | 267 | 5.2 | 11.3 | 0.00 | 0.00 | 0.00 | 55 | 1014.7 |
| 20260505201536 | 64 | 254 | 4.3 | 9.6 | 0.00 | 0.00 | 0.00 | 55 | 1014.7 |
| 20260505201016 | 63 | 234 | 4.3 | 7.8 | 0.00 | 0.00 | 0.00 | 55 | 1014.6 |
| 20260505200518 | 64 | 232 | 2.6 | 6.1 | 0.00 | 0.00 | 0.00 | 55 | 1014.6 |
| 20260505200051 | 63 | 274 | 2.6 | 7.8 | 0.00 | 0.00 | 0.00 | 55 | 1014.6 |
| 20260505195523 | 64 | 243 | 2.6 | 7.0 | 0.00 | 0.00 | 0.00 | 54 | 1014.6 |
| 20260505195020 | 64 | 293 | 2.6 | 7.8 | 0.00 | 0.00 | 0.00 | 53 | 1014.6 |
| 20260505194548 | 64 | 269 | 5.2 | 8.7 | 0.00 | 0.00 | 0.00 | 53 | 1014.6 |
| 20260505194019 | 64 | 286 | 4.3 | 8.7 | 0.00 | 0.00 | 0.00 | 54 | 1014.6 |
| 20260505193522 | 63 | 267 | 2.6 | 7.0 | 0.00 | 0.00 | 0.00 | 56 | 1014.5 |
| 20260505193110 | 63 | 286 | 3.5 | 7.0 | 0.00 | 0.00 | 0.00 | 58 | 1014.5 |
| 20260505192518 | 63 | 260 | 3.5 | 8.7 | 0.00 | 0.00 | 0.00 | 57 | 1014.5 |
| 20260505192021 | 62 | 292 | 3.5 | 8.7 | 0.00 | 0.00 | 0.00 | 59 | 1014.5 |
| 20260505191542 | 62 | 280 | 3.5 | 8.7 | 0.00 | 0.00 | 0.00 | 58 | 1014.4 |
| 20260505191021 | 63 | 263 | 4.3 | 8.7 | 0.00 | 0.00 | 0.00 | 58 | 1014.4 |
| 20260505190519 | 63 | 277 | 5.2 | 9.6 | 0.00 | 0.00 | 0.00 | 55 | 1014.5 |
| 20260505190048 | 63 | 269 | 5.2 | 9.6 | 0.00 | 0.00 | 0.00 | 58 | 1014.4 |
| 20260505185519 | 63 | 304 | 5.2 | 9.6 | 0.00 | 0.00 | 0.00 | 57 | 1014.3 |
| 20260505185023 | 63 | 284 | 6.1 | 9.6 | 0.00 | 0.00 | 0.00 | 57 | 1014.2 |
| 20260505184542 | 62 | 298 | 6.1 | 9.6 | 0.00 | 0.00 | 0.00 | 58 | 1014.1 |
| 20260505184021 | 62 | 283 | 6.1 | 9.6 | 0.00 | 0.00 | 0.00 | 58 | 1014.1 |
| 20260505183521 | 61 | 285 | 5.2 | 7.8 | 0.00 | 0.00 | 0.00 | 60 | 1014.1 |
| 20260505183054 | 61 | 284 | 6.1 | 7.8 | 0.00 | 0.00 | 0.00 | 61 | 1014.0 |
| 20260505182518 | 61 | 297 | 5.2 | 8.7 | 0.00 | 0.00 | 0.00 | 59 | 1014.2 |
| 20260505182018 | 62 | 296 | 6.1 | 7.8 | 0.00 | 0.00 | 0.00 | 58 | 1014.0 |
| 20260505181541 | 63 | 281 | 5.2 | 7.8 | 0.00 | 0.00 | 0.00 | 57 | 1013.9 |
| 20260505181019 | 63 | 309 | 4.3 | 7.8 | 0.00 | 0.00 | 0.00 | 60 | 1013.9 |
| 20260505180521 | 62 | 285 | 1.7 | 3.5 | 0.00 | 0.00 | 0.00 | 62 | 1013.7 |
| 20260505180051 | 61 | 291 | 1.7 | 6.1 | 0.00 | 0.00 | 0.00 | 62 | 1013.6 |
| 20260505175517 | 61 | 286 | 2.6 | 6.1 | 0.00 | 0.00 | 0.00 | 63 | 1013.7 |
| 20260505175016 | 60 | 273 | 1.7 | 5.2 | 0.00 | 0.00 | 0.00 | 65 | 1013.7 |
| 20260505174543 | 60 | 242 | 1.7 | 3.5 | 0.00 | 0.00 | 0.00 | 63 | 1013.8 |
| 20260505174020 | 59 | 273 | 0.9 | 2.6 | 0.00 | 0.00 | 0.00 | 65 | 1013.7 |
| 20260505173525 | 58 | 273 | 0.9 | 5.2 | 0.00 | 0.00 | 0.00 | 66 | 1013.6 |
| 20260505173046 | 57 | 273 | 1.7 | 6.1 | 0.00 | 0.00 | 0.00 | 67 | 1013.7 |
| 20260505172517 | 57 | 271 | 3.5 | 7.0 | 0.00 | 0.00 | 0.00 | 68 | 1013.6 |
| 20260505172019 | 57 | 280 | 4.3 | 7.0 | 0.00 | 0.00 | 0.00 | 69 | 1013.5 |
| 20260505171547 | 57 | 281 | 3.5 | 7.0 | 0.00 | 0.00 | 0.00 | 70 | 1013.4 |
| 20260505171021 | 58 | 280 | 4.3 | 7.0 | 0.00 | 0.00 | 0.00 | 68 | 1013.6 |
| 20260505170520 | 58 | 294 | 5.2 | 7.0 | 0.00 | 0.00 | 0.00 | 67 | 1013.4 |
| 20260505170046 | 58 | 284 | 2.6 | 6.1 | 0.00 | 0.00 | 0.00 | 68 | 1013.3 |
| 20260505165519 | 58 | 280 | 2.6 | 6.1 | 0.00 | 0.00 | 0.00 | 66 | 1013.2 |
| 20260505165019 | 58 | 269 | 2.6 | 5.2 | 0.00 | 0.00 | 0.00 | 65 | 1013.2 |
| 20260505164543 | 58 | 269 | 0.9 | 3.5 | 0.00 | 0.00 | 0.00 | 67 | 1013.3 |
| 20260505164017 | 58 | 269 | 1.7 | 5.2 | 0.00 | 0.00 | 0.00 | 64 | 1013.1 |
| 20260505163519 | 59 | 269 | 2.6 | 5.2 | 0.00 | 0.00 | 0.00 | 66 | 1013.2 |
| 20260505163045 | 58 | 269 | 2.6 | 3.5 | 0.00 | 0.00 | 0.00 | 66 | 1013.1 |
| 20260505162523 | 58 | 269 | 0.0 | 2.6 | 0.00 | 0.00 | 0.00 | 69 | 1013.0 |
| 20260505162022 | 58 | 269 | 0.9 | 3.5 | 0.00 | 0.00 | 0.00 | 67 | 1012.9 |
| 20260505161559 | 58 | 269 | 1.7 | 5.2 | 0.00 | 0.00 | 0.00 | 66 | 1012.9 |
| 20260505161018 | 58 | 269 | 2.6 | 5.2 | 0.00 | 0.00 | 0.00 | 67 | 1012.7 |
| 20260505160523 | 58 | 269 | 2.6 | 3.5 | 0.00 | 0.00 | 0.00 | 66 | 1012.9 |
| 20260505153056 | 58 | 184 | 0.0 | 0.0 | 0.00 | 0.00 | 0.00 | 68 | 1012.4 |
| 20260505152520 | 57 | 184 | 0.0 | 0.0 | 0.00 | 0.00 | 0.00 | 70 | 1012.3 |
| 20260505152029 | 56 | 266 | 0.0 | 1.7 | 0.00 | 0.00 | 0.00 | 71 | 1012.3 |
| 20260505151554 | 56 | 266 | 0.0 | 1.7 | 0.00 | 0.00 | 0.00 | 72 | 1012.4 |
| 20260505151021 | 55 | 266 | 0.0 | 1.7 | 0.00 | 0.00 | 0.00 | 70 | 1012.4 |
| 20260505150518 | 54 | 266 | 0.0 | 1.7 | 0.00 | 0.00 | 0.00 | 71 | 1012.4 |
| 20260505140519 | 52 | 167 | 6.1 | 8.7 | 0.00 | 0.00 | 0.00 | 75 | 1011.9 |
| 20260505125024 | 57 | 114 | 4.3 | 7.0 | 0.00 | 0.00 | 0.00 | 59 | 1011.2 |
| 20260505124557 | 56 | 128 | 0.9 | 6.1 | 0.00 | 0.00 | 0.00 | 61 | 1011.2 |
| 20260505124016 | 56 | 120 | 3.5 | 7.0 | 0.00 | 0.00 | 0.00 | 64 | 1011.1 |
| 20260505123520 | 57 | 117 | 5.2 | 6.1 | 0.00 | 0.00 | 0.00 | 63 | 1011.0 |
| 20260505123109 | 57 | 114 | 0.9 | 3.5 | 0.00 | 0.00 | 0.00 | 62 | 1011.0 |
| 20260505122519 | 57 | 78 | 0.9 | 4.3 | 0.00 | 0.00 | 0.00 | 63 | 1011.1 |
| 20260505122233 | 57 | 78 | 0.9 | 6.1 | 0.00 | 0.00 | 0.00 | 61 | 1011.1 |
| 20260505121532 | 57 | 82 | 4.3 | 7.0 | 0.00 | 0.00 | 0.00 | 62 | 1011.1 |
| 20260505121013 | 57 | 115 | 5.2 | 7.0 | 0.00 | 0.00 | 0.00 | 63 | 1011.1 |
| 20260505120512 | 56 | 113 | 5.2 | 7.8 | 0.00 | 0.00 | 0.00 | 64 | 1011.1 |
| 20260505120039 | 56 | 113 | 6.1 | 7.8 | 0.00 | 0.00 | 0.00 | 65 | 1011.1 |
| 20260505115510 | 56 | 114 | 7.0 | 7.8 | 0.00 | 0.00 | 0.00 | 66 | 1011.0 |
| 20260505115009 | 56 | 123 | 5.2 | 7.8 | 0.00 | 0.00 | 0.00 | 64 | 1011.1 |
| 20260505114527 | 56 | 175 | 4.3 | 5.2 | 0.00 | 0.00 | 0.00 | 67 | 1011.2 |
| 20260505114012 | 57 | 163 | 3.5 | 6.1 | 0.00 | 0.00 | 0.00 | 63 | 1011.2 |
| 20260505113511 | 57 | 146 | 3.5 | 6.1 | 0.00 | 0.00 | 0.00 | 62 | 1011.2 |
| 20260505113029 | 57 | 154 | 3.5 | 6.1 | 0.00 | 0.00 | 0.00 | 62 | 1011.1 |
| 20260505112511 | 58 | 157 | 3.5 | 6.1 | 0.00 | 0.00 | 0.00 | 62 | 1011.1 |
| 20260505112011 | 58 | 144 | 4.3 | 6.1 | 0.00 | 0.00 | 0.00 | 63 | 1011.1 |
| 20260505111532 | 58 | 111 | 2.6 | 5.2 | 0.00 | 0.00 | 0.00 | 62 | 1011.1 |
| 20260505111011 | 58 | 111 | 2.6 | 3.5 | 0.00 | 0.00 | 0.00 | 64 | 1011.0 |
| 20260505110511 | 58 | 111 | 2.6 | 3.5 | 0.00 | 0.00 | 0.00 | 63 | 1011.1 |
| 20260505102013 | 58 | 111 | 1.7 | 2.6 | 0.00 | 0.00 | 0.00 | 61 | 1011.0 |
| 20260505101534 | 58 | 111 | 0.0 | 1.7 | 0.00 | 0.00 | 0.00 | 61 | 1011.0 |
| 20260505101014 | 58 | 111 | 0.0 | 3.5 | 0.00 | 0.00 | 0.00 | 59 | 1011.1 |
| 20260505100513 | 58 | 110 | 1.7 | 3.5 | 0.00 | 0.00 | 0.00 | 59 | 1011.1 |
| 20260505100031 | 58 | 350 | 0.9 | 1.7 | 0.00 | 0.00 | 0.00 | 59 | 1011.0 |
| 20260505095510 | 58 | 350 | 0.0 | 2.6 | 0.00 | 0.00 | 0.00 | 60 | 1011.1 |
| 20260505095012 | 58 | 350 | 0.0 | 3.5 | 0.00 | 0.00 | 0.00 | 60 | 1011.1 |
| 20260505094531 | 58 | 350 | 1.7 | 3.5 | 0.00 | 0.00 | 0.00 | 60 | 1011.3 |
| 20260505094012 | 58 | 350 | 0.0 | 4.3 | 0.00 | 0.00 | 0.00 | 59 | 1011.2 |
| 20260505093512 | 59 | 350 | 2.6 | 4.3 | 0.00 | 0.00 | 0.00 | 59 | 1011.2 |
| 20260505093031 | 60 | 304 | 0.9 | 4.3 | 0.00 | 0.00 | 0.00 | 57 | 1011.2 |
| 20260505092513 | 60 | 155 | 1.7 | 6.1 | 0.00 | 0.00 | 0.00 | 55 | 1011.1 |
| 20260505092014 | 60 | 174 | 3.5 | 7.8 | 0.00 | 0.00 | 0.00 | 55 | 1011.0 |
| 20260505091533 | 60 | 147 | 3.5 | 8.7 | 0.00 | 0.00 | 0.00 | 55 | 1011.1 |
| 20260505091011 | 60 | 119 | 5.2 | 8.7 | 0.00 | 0.00 | 0.00 | 54 | 1010.6 |
| 20260505090513 | 61 | 150 | 3.5 | 6.1 | 0.00 | 0.00 | 0.00 | 54 | 1011.0 |
| 20260505090030 | 61 | 140 | 1.7 | 3.5 | 0.00 | 0.00 | 0.00 | 54 | 1011.0 |
| 20260505085511 | 61 | 140 | 0.0 | 0.9 | 0.00 | 0.00 | 0.00 | 54 | 1011.0 |
| 20260505085013 | 61 | 140 | 0.0 | 1.7 | 0.00 | 0.00 | 0.00 | 53 | 1010.9 |
| 20260505084544 | 61 | 140 | 0.0 | 1.7 | 0.00 | 0.00 | 0.00 | 54 | 1010.9 |
| 20260505084012 | 62 | 140 | 0.0 | 3.5 | 0.00 | 0.00 | 0.00 | 53 | 1011.0 |
| 20260505083511 | 63 | 140 | 1.7 | 3.5 | 0.00 | 0.00 | 0.00 | 51 | 1010.9 |
| 20260505083046 | 63 | 140 | 1.7 | 3.5 | 0.00 | 0.00 | 0.00 | 48 | 1010.8 |
| 20260505082513 | 64 | 315 | 0.0 | 1.7 | 0.00 | 0.00 | 0.00 | 48 | 1010.8 |
| 20260505082013 | 64 | 315 | 0.0 | 3.5 | 0.00 | 0.00 | 0.00 | 45 | 1010.7 |
| 20260505081541 | 64 | 315 | 1.7 | 3.5 | 0.00 | 0.00 | 0.00 | 45 | 1010.7 |
| 20260505081014 | 64 | 66 | 1.7 | 2.6 | 0.00 | 0.00 | 0.00 | 46 | 1010.7 |
| 20260505080512 | 64 | 66 | 0.0 | 1.7 | 0.00 | 0.00 | 0.00 | 46 | 1010.7 |
| 20260505080044 | 64 | 66 | 0.0 | 2.6 | 0.00 | 0.00 | 0.00 | 46 | 1010.7 |
| 20260505075514 | 63 | 66 | 0.0 | 4.3 | 0.00 | 0.00 | 0.00 | 47 | 1010.7 |
| 20260505075011 | 63 | 66 | 2.6 | 4.3 | 0.00 | 0.00 | 0.00 | 49 | 1010.7 |
| 20260505074535 | 63 | 52 | 1.7 | 4.3 | 0.00 | 0.00 | 0.00 | 50 | 1010.7 |
| 20260505074014 | 63 | 31 | 1.7 | 3.5 | 0.00 | 0.00 | 0.00 | 49 | 1010.8 |
| 20260505073512 | 63 | 26 | 1.7 | 3.5 | 0.00 | 0.00 | 0.00 | 49 | 1010.8 |
| 20260505073045 | 62 | 101 | 0.9 | 5.2 | 0.00 | 0.00 | 0.00 | 50 | 1010.8 |
| 20260505072513 | 62 | 90 | 2.6 | 7.0 | 0.00 | 0.00 | 0.00 | 52 | 1010.8 |
| 20260505072011 | 62 | 71 | 4.3 | 7.0 | 0.00 | 0.00 | 0.00 | 55 | 1011.0 |
| 20260505071544 | 63 | 64 | 4.3 | 7.0 | 0.00 | 0.00 | 0.00 | 53 | 1011.0 |
| 20260505071013 | 64 | 65 | 3.5 | 7.0 | 0.00 | 0.00 | 0.00 | 50 | 1011.1 |
| 20260505070515 | 64 | 58 | 1.7 | 4.3 | 0.00 | 0.00 | 0.00 | 50 | 1011.1 |
| 20260505070042 | 65 | 30 | 2.6 | 7.0 | 0.00 | 0.00 | 0.00 | 49 | 1011.1 |
| 20260505065513 | 65 | 28 | 4.3 | 7.0 | 0.00 | 0.00 | 0.00 | 47 | 1011.0 |
| 20260505065014 | 66 | 30 | 3.5 | 5.2 | 0.00 | 0.00 | 0.00 | 48 | 1011.0 |
| 20260505064535 | 66 | 19 | 3.5 | 6.1 | 0.00 | 0.00 | 0.00 | 48 | 1011.0 |
| 20260505064011 | 66 | 24 | 2.6 | 4.3 | 0.00 | 0.00 | 0.00 | 47 | 1010.9 |
| 20260505063513 | 66 | 49 | 2.6 | 5.2 | 0.00 | 0.00 | 0.00 | 46 | 1011.0 |
| 20260505063039 | 66 | 11 | 3.5 | 5.2 | 0.00 | 0.00 | 0.00 | 47 | 1010.9 |
| 20260505062513 | 66 | 86 | 0.0 | 3.5 | 0.00 | 0.00 | 0.00 | 45 | 1011.0 |
| 20260505062013 | 66 | 86 | 0.9 | 5.2 | 0.00 | 0.00 | 0.00 | 46 | 1011.0 |
| 20260505061532 | 65 | 86 | 2.6 | 6.1 | 0.00 | 0.00 | 0.00 | 47 | 1011.0 |
| 20260505061014 | 64 | 86 | 3.5 | 6.1 | 0.00 | 0.00 | 0.00 | 49 | 1011.0 |
| 20260505060514 | 64 | 67 | 3.5 | 4.3 | 0.00 | 0.00 | 0.00 | 52 | 1010.9 |
| 20260505060052 | 64 | 59 | 1.7 | 5.2 | 0.00 | 0.00 | 0.00 | 51 | 1011.0 |